Tracking 18647 objects as of 28-May-2017
HD Live streaming from Space Station
objects crossing your sky now

COSMOS 2504

Track COSMOS 2504 now!
10-day predictions
COSMOS 2504 is classified as:


NORAD ID: 40555
Int'l Code: 2015-020D
Perigee: 633.7 km
Apogee: 1,509.5 km
Inclination: 82.5 °
Period: 106.5 minutes
Semi major axis: 7442 km
RCS: Unknown
Launch date: March 31, 2015
Source: Commonwealth of Independent States (former USSR) (CIS)
Launch site: PLESETSK MISSILE AND SPACE COMPLEX (PKMTR)

COSMOS 2504 is a secretive Russian military satellite. Russian officials have not disclosed information on its mission.
Your satellite tracking list
Your tracking list is empty





NASA's NSSDC Master Catalog

Two Line Element Set (TLE):
1 40555U 15020D   17147.82956289 +.00000043 +00000-0 +14806-4 0  9996
2 40555 082.5209 251.8312 0588406 213.3702 142.9039 13.52127099101344
Source of the keplerian elements: AFSPC